Regional Weather Roundup
Issued by NWS Upton, NY

Current Version | Previous Version | Text Only | Print | Product List | Glossary On
Versions: 1 2 3 4 5 6 7 8 9 10 11 12 13 14 15 16 17 18 19 20 21 22 23 24 25 26 27 28 29 30 31 32 33 34 35 36 37 38 39 40 41 42 43 44 45 46 47 48 49 50
964
ASUS41 KOKX 271605
RWROKX

REGIONAL WEATHER ROUNDUP
NATIONAL WEATHER SERVICE NEW YORK NY
1200 PM EDT WED JUL 27 2016

NOTE: "FAIR" INDICATES FEW OR NO CLOUDS BELOW 12,000 FEET WITH NO
SIGNIFICANT WEATHER AND/OR OBSTRUCTIONS TO VISIBILITY.

NYZ071-072-176-178-NJZ106-104-271700-
NEW YORK CITY METRO AREA

CITY           SKY/WX    TMP DP  RH WIND       PRES   REMARKS
Central Park   SUNNY     88  63  43 VRB5      29.97F
LaGuardia APRT MOSUNNY   86  62  44 NE6       29.94F
Kennedy INTL   MOSUNNY   85  62  46 S10       29.96S
Newark/Liberty MOSUNNY   88  59  37 CALM      29.94F
Bronx Bot Gard   N/A     86  59  39 W5        29.95S
Wall St Helipt SUNNY     88  63  42 W6        29.96S
Teterboro      SUNNY     88  59  37 N7        29.93F
$$

NYZ177-179-078>081-271700-
LONG ISLAND NEW YORK

CITY           SKY/WX    TMP DP  RH WIND       PRES   REMARKS
Farmingdale    MOSUNNY   85  63  47 SE15G23   29.95S
MacArthur/ISP  MOSUNNY   85  63  47 S12G17    29.94S
Shirley        SUNNY     87  62  43 S12       29.95S
Riverhead      NOT AVBL
Westhampton    SUNNY     86  59  39 S10       29.96S
Southhampton     N/A     84  64  51 S6        29.91S
Bridgehampton    N/A     84  66  54 S1        29.94R
East Hampton   FAIR      85  61  45 SE9       29.94S
Montauk          N/A     83  64  52 VRB3      29.95F
$$

NYZ052-065-067-271700-
HUDSON VALLEY

CITY           SKY/WX    TMP DP  RH WIND       PRES   REMARKS
White Plains   SUNNY     84  58  40 CALM      29.96S
Newburgh       MOSUNNY   82  64  54 VRB5      29.98
Montgomery     SUNNY     84  64  50 CALM      29.96F
Poughkeepsie   SUNNY     85  62  46 E3        29.94F
Albany         MOSUNNY   84  61  45 CALM      29.95F
$$

NJZ001-105-106-008-010-013-015-019>022-104-271700-
NEW JERSEY

CITY           SKY/WX    TMP DP  RH WIND       PRES   REMARKS
Newark/Liberty MOSUNNY   88  59  37 CALM      29.94F
Teterboro      SUNNY     88  59  37 N7        29.93F
Caldwell       SUNNY     86  60  41 VRB3      29.96F
Morristown     SUNNY     86  61  42 CALM      29.96F
Somerville     PTSUNNY   88  63  43 VRB3      29.94S
Linden         PTSUNNY   87  60  40 CALM      29.96S
Sussex         SUNNY     83  63  50 SW6       29.97F
Abdover          N/A     83  62  49 VRB3      29.98F
Trenton        SUNNY     86  65  49 CALM      29.95F
Millville      MOSUNNY   88  74  63 SW5       29.94S HX  96
Atlantic City  SUNNY     86  71  60 SE7       29.95R HX  91
Wrightstown    SUNNY     87  67  51 VRB1      29.92F
Toms River     SUNNY     88  68  51 S6        29.96S HX  91
Belmar         SUNNY     85  64  49 S5        29.97S
$$

PAZ047>061-062-071-271700-
EASTERN PENNSYLVANIA

CITY           SKY/WX    TMP DP  RH WIND       PRES   REMARKS
Philadelphia   MOSUNNY   89  65  44 SE6       29.95S HX  91
Allentown      SUNNY     85  61  44 W3        29.98S
Scranton       SUNNY     84  60  44 CALM      30.00F
$$

CTZ002-004>006-009-010-012-RIZ004-006-007-MAZ004-011-015-271700-
SOUTHERN NEW ENGLAND
 IN CT

CITY           SKY/WX    TMP DP  RH WIND       PRES   REMARKS
Bradley INTL   MOSUNNY   89  58  34 S7        29.93R
Hartford       MOSUNNY   91  61  36 VRB6      29.92F HX  91
Danbury        MOSUNNY   84  59  42 VRB6      29.97S
Wtrbury/Oxford MOSUNNY   82  61  47 NW5       29.99F
Bridgeport     SUNNY     83  63  50 S8        29.94F
Meriden        SUNNY     89  61  38 N5        29.93F
New Haven      MOSUNNY   81  65  58 S9        29.94F
Chester        FAIR      86  63  45 VRB6      29.95S
Groton         SUNNY     81  67  62 SW9       29.93S
Wilimantic     NOT AVBL

 IN RI

CITY           SKY/WX    TMP DP  RH WIND       PRES   REMARKS
Providence     MOSUNNY   87  60  40 VRB6      29.92F
Block Island   SUNNY     83  64  52 VRB5      29.95S
Westerly         N/A     84  57  39 S10       29.94F
 IN MA

CITY           SKY/WX    TMP DP  RH WIND       PRES   REMARKS
Boston         MOSUNNY   84  62  47 SE9       29.90F
Worchester     SUNNY     83  56  39 W8        29.96F
Westfield      PTSUNNY   87  58  37 SW6       29.92F
Provincetown   SUNNY     79  66  64 VRB5      29.93S
Nantucket      SUNNY     79  66  64 S9        29.93S
$$

ANZ330-335-338-340-345-350-353-355-271700-
COASTAL MARINE OBSERVATIONS


STATION/POSITION TIME  SKY/WX   TEMP    WIND        PRES    VSBY  WAVE
                                AIR SEA DIR/SP/G                  HT/PER
                 (UTC)          (F)     (DEG/KT/KT) (MB)    (MI)  (FT/S)
NY HARB ENTRANCE 1450            76 75  330/  2/  2 1014.2          2/ 6
20S FIRE ISLAND  1450            74 75   50/  2/  4 1013.7          2/ 6
GREAT SOUTH BAY  1500            80 82  150/  2/  4   N/A
23 SSW MONTAUK P 1450            74 71     CALM     1014.5          2/ 6
15 E BARNEGAT LI NOT AVBL
HUDSON CANYON    1450            78 78              1013.8          2/ 6
KINGS POINT      1500            78 73              1014.3
EXECUTION ROCKS  1500            78     110/  2/  4   N/A
CENTRAL LI SOUND 1500            75 76  240/  4/  6   N/A           0
EASTERN LI SOUND 1500            75 69  250/  4/  6   N/A
ROBBINS REEF     1500            85        CALM     1013.6
$$


>>>>>>>>>>>>>>>>>>>>>>>>>>>> KEY <<<<<<<<<<<<<<<<<<<<<<<<<<<
>                                                          <
>     SKY/WX - Sky Condition/Present Weather               <
>     TMP    - Temperature in Fahrenheit                   <
>     DP     - Dew Point in Fahrenheit                     <
>     RH     - Relative Humidity in Percent                <
>     WIND   - Direction (from) and Speed in MPH           <
>     PRES   - Mean Sea Level Pressure (inches of Hg)      <
>     WCI    - Wind Chill Index                            <
>     VSB    - VISIBILITY IN MILES                         <
>     HX     - HEAT INDEX                                  <
>     TC     - TEMPERATURE IN CELSIUS                      <
>     VRB    - VARIABLE WIND DIRECTION                     <
>                                                          <
>>>>>>>>>>>>>>>>>>>>>>>>>>>> KEY <<<<<<<<<<<<<<<<<<<<<<<<<<<




USA.gov is the U.S. government's official web portal to all federal, state and local government web resources and services.